Regional Weather Roundup
Issued by NWS

Home | Current Version | Previous Version | Graphics & Text | Print | Product List | Glossary On
Versions: 1 2 3 4 5 6 7 8 9 10 11 12 13 14 15 16 17 18 19 20 21 22 23 24 25 26 27 28 29 30 31 32 33 34 35 36 37 38 39 40 41 42 43 44 45 46 47 48 49 50
000
ASUS43 KLOT 190509
RWRIL

ILLINOIS REGIONAL WEATHER ROUNDUP
NATIONAL WEATHER SERVICE CHICAGO/ROMEOVILLE IL
1200 AM CDT TUE SEP 19 2017

NOTE: "FAIR" INDICATES FEW OR NO CLOUDS BELOW 12,000 FEET WITH NO
SIGNIFICANT WEATHER AND/OR OBSTRUCTIONS TO VISIBILITY.

* THESE STATIONS ARE NOT UNDER NWS QUALITY CONTROL. THEY ALSO MAY NOT
  REPORT WEATHER SUCH AS PRECIPITATION OR FOG.

ILZ001-002-007-009-015-016-024-190600-
NORTHWEST ILLINOIS

CITY           SKY/WX    TMP DP  RH WIND       PRES   REMARKS
MOLINE         CLOUDY    69  66  90 CALM      29.94F
STERLING*        N/A     64  58  80 E6        29.97S
SAVANNA*       LGT RAIN  66  58  76 CALM      29.98S
$$

ILZ003-004-008-010-011-017-018-190600-
NORTH CENTRAL ILLINOIS

CITY           SKY/WX    TMP DP  RH WIND       PRES   REMARKS
ROCKFORD       CLOUDY    64  56  75 E6        29.99F
FREEPORT*      CLOUDY    62  54  76 E5        29.99F
ROCHELLE*      CLOUDY    63  56  77 E6        29.98F
DE KALB*       CLOUDY    64  58  82 E8        29.99S
PERU*          DRIZZLE   62  58  87 SE3       29.98R
$$

ILZ005-006-012>014-019>023-190600-
NORTHEAST ILLINOIS

CITY           SKY/WX    TMP DP  RH WIND       PRES   REMARKS
CHICAGO-OHARE  CLOUDY    67  59  75 NE7       29.98F
CHICAGO-MIDWAY CLOUDY    68  62  81 NE7       29.98F
AURORA         LGT RAIN  65  59  81 E3        29.98F
LANSING*       CLOUDY    67  64  91 NE3       29.99R
JOLIET*        CLOUDY    68  59  73 E6        29.96F
WAUKEGAN       CLOUDY    65  32  29 E6        29.98F
DUPAGE AIRPORT CLOUDY    65  60  84 NE7       29.97F
KANKAKEE*      TSTM      63  62  97 CALM      29.99F
WHEELING       CLOUDY    66  62  87 CALM      29.99F
MORRIS*        RAIN      63  59  89 SE7       29.97R
ROMEOVILLE*    CLOUDY    66  59  78 E10       29.97F
NORTHERLY ISL    N/A     67  62  84 N6          N/A
$$

LMZ740>746-190600-
SOUTHERN LAKE MICHIGAN

STATION/POSITION SKY/WX   TEMP    WIND        PRES    VSBY  WAVE
                          AIR SEA DIR/SP/G                  HT/PER
                          (F)     (DEG/KT/KT) (MB)    (MI)  (FT/S)
SOUTHERN BUOY              67 68   50/  6/  8 1016.2          2/ 4
WILMETTE HARBOR            67 69   50/  8/ 10   N/A           2/ 5
HARRISON CRIB              68      60/  8/  9   N/A
CALUMET HARBOR             67      30/  5/  7 1014.8F
BURNS HARBOR               67      80/  8/ 10 1015.2F
MICHIGAN CITY              65      60/  6/  6   N/A
MICHIGAN CITY 6N           67 68  100/  8/ 10   N/A           2/ 3
ST. JOSEPH                 67 69  110/  6/  8 1014.9          2/ 4
$$

ILZ025>027-034>036-040-047-049-050-058-095>099-190600-
WEST-CENTRAL ILLINOIS

CITY           SKY/WX    TMP DP  RH WIND       PRES   REMARKS
QUINCY         CLOUDY    66  65  96 S3        29.95F
GALESBURG*     PTCLDY    67  67 100 CALM      29.95F
MACOMB*        CLOUDY    67  67 100 E6        29.97S FOG
JACKSONVILLE*  FOG       65  65  99 CALM      29.95S VSB 3/4
PITTSFIELD*    FOG       64  64  99 CALM      29.97S VSB 1/4
$$

ILZ028>032-037-038-041>044-048-051>054-059>061-190600-
CENTRAL ILLINOIS

CITY           SKY/WX    TMP DP  RH WIND       PRES   REMARKS
PONTIAC        CLOUDY    65  64  98 CALM      29.98S
BLOOMINGTON    RAIN      66  65  96 N7        29.98R
DECATUR        LGT RAIN  70  70 100 SW5       29.95F
PEORIA         CLOUDY    68  68 100 NW5       29.95S
LACON*         LGT RAIN  64  64 100 E5        29.94F
LINCOLN*       DRIZZLE   69  69 100 CALM      29.94F
SPRINGFIELD    CLOUDY    70  70 100 SW3       29.95S
TAYLORVILLE    CLOUDY    69  69 100 CALM      29.95F FOG
$$

ILZ033-039-045-046-055>057-062-063-190600-
EAST-CENTRAL ILLINOIS

CITY           SKY/WX    TMP DP  RH WIND       PRES   REMARKS
CHAMPAIGN      LGT RAIN  70  69  97 SW3       29.95F FOG
RANTOUL*       TSTM      71  70  98 E3        29.96F
MATTOON        LGT RAIN  71  71 100 W6        29.95F
PARIS*         RAIN      70  69  98 S5        29.96F
$$

ILZ079-100>102-190600-
SOUTHWEST ILLINOIS

CITY           SKY/WX    TMP DP  RH WIND       PRES   REMARKS
ALTON          CLOUDY    66  66 100 CALM      29.94F
BELLEVILLE     MOCLDY    70  66  85 N2        29.94F
CAHOKIA*       CLOUDY    70  68  93 CALM      29.93F
SPARTA*        MOCLDY    71  70  97 CALM      29.96F
$$

ILZ064>066-069>071-074>076-080>082-084>086-088>090-092>094-190600-
SOUTH-CENTRAL ILLINOIS

CITY           SKY/WX    TMP DP  RH WIND       PRES   REMARKS
CARBONDALE     CLOUDY    70  70 100 N3        29.94F FOG
CAIRO*         PTCLDY    70  70  98 CALM      29.94S
EFFINGHAM*     CLOUDY    72  71  98 NW3       29.97F
MARION         PTCLDY    73  72  94 CALM      29.95F
MT. VERNON       N/A     73  69  87 SW3       29.96F
CENTRALIA*     TSTM      72  70  95 CALM      29.96R
SALEM*         TSTM      73  70  89 W12G20    29.98R
METROPOLIS*    CLOUDY    72  71  98 CALM      29.96S FOG
$$

ILZ067-068-072-073-078-083-087-091-190600-
SOUTHEAST ILLINOIS

CITY           SKY/WX    TMP DP  RH WIND       PRES   REMARKS
LAWRENCEVILLE  CLOUDY    70  69  97 S7        29.97S FOG
FLORA*         CLOUDY    72  68  88 CALM      29.96F
FAIRFIELD*     CLOUDY    70  69  99 CALM      29.94F
HARRISBURG*    CLOUDY    70  70 100 CALM      29.96S FOG
ROBINSON*      MOCLDY    68  68  99 CALM      29.97S FOG
CARMI*         CLOUDY    69  69 100 CALM      29.95F FOG
$$

ABBREVIATIONS USED IN REMARKS
   TC - TEMPERATURE IN CELSIUS
  WCI - WIND CHILL INDEX
   HX - HEAT INDEX
  VSB - VISIBILITY
$$





USA.gov is the U.S. government's official web portal to all federal, state and local government web resources and services.